This is the latest recevied weather packets stored in our database for station/object IK2ILW-4. If no packets are shown the sender has not sent any weather packets the latest 10 day(s).
| Time | Temp. | Humidity | Pressure | Rain* | Wind** | Luminosity | Snow |
|---|---|---|---|---|---|---|---|
| 1787492565 | 18.89° C | 73% | 1024.1 hPa | 0 mm | - | 290 W/m² | - |
| 1787492261 | 18.89° C | 73% | 1024.1 hPa | 0 mm | - | 271 W/m² | - |
| 1787491971 | 18.89° C | 73% | 1024.1 hPa | 0 mm | - | 308 W/m² | - |
| 1787491670 | 18.89° C | 71% | 1024.1 hPa | 0 mm | - | 320 W/m² | - |
| 1787491362 | 18.89° C | 73% | 1024.1 hPa | 0 mm | - | 341 W/m² | - |
| 1787491071 | 18.89° C | 72% | 1024.1 hPa | 0 mm | - | 320 W/m² | - |
| 1787490768 | 18.89° C | 75% | 1024.2 hPa | 0 mm | - | 311 W/m² | - |
| 1787490464 | 18.33° C | 77% | 1024.2 hPa | 0 mm | - | 353 W/m² | - |
| 1787490173 | 18.33° C | 75% | 1024.2 hPa | 0 mm | - | 320 W/m² | - |
| 1787489872 | 18.89° C | 74% | 1024.1 hPa | 0 mm | - | 283 W/m² | - |
| 1787489565 | 18.33° C | 74% | 1024.1 hPa | 0 mm | - | 229 W/m² | - |
| 1787489275 | 18.89° C | 73% | 1024.1 hPa | 0 mm | - | 181 W/m² | - |
| 1787488964 | 18.89° C | 72% | 1024.1 hPa | 0 mm | - | 134 W/m² | - |
| 1787488654 | 19.44° C | 71% | 1024.1 hPa | 0 mm | - | 125 W/m² | - |
| 1787488361 | 19.44° C | 69% | 1024.1 hPa | 0 mm | - | 155 W/m² | - |
| 1787488059 | 19.44° C | 71% | 1024 hPa | 0 mm | - | 403 W/m² | - |
| 1787487758 | 19.44° C | 70% | 1024 hPa | 0 mm | - | 1000 W/m² | - |
| 1787487469 | 19.44° C | 67% | 1024 hPa | 0 mm | - | 939 W/m² | - |
| 1787487163 | 20° C | 71% | 1024.1 hPa | 0 mm | - | 954 W/m² | - |
| 1787486860 | 18.89° C | 73% | 1024.1 hPa | 0 mm | - | 983 W/m² | - |
| 1787486569 | 18.89° C | 71% | 1024.1 hPa | 0 mm | - | 397 W/m² | - |
| 1787486260 | 18.89° C | 73% | 1024.1 hPa | 0 mm | - | 998 W/m² | - |
| 1787485956 | 18.33° C | 75% | 1024.1 hPa | 0 mm | - | 1004 W/m² | - |
| 1787485669 | 18.33° C | 74% | 1024.1 hPa | 0 mm | - | 348 W/m² | - |
| 1787485367 | 18.33° C | 75% | 1024.1 hPa | 0 mm | - | 267 W/m² | - |
* Rain since midnight (hover to see other rain measurements)
** Current wind speed in m/s (hover to see current wind gust speed)